Weather History for KGRK - May, 2013

Change the Weather History Date:

Friday, May 10, 2013

  Actual Average Record
Temperature  
Mean Temperature 72 °F -  
Max Temperature 82 °F 82 °F 96 °F (2008)
Min Temperature 62 °F 62 °F 55 °F (1997)
Cooling Degree Days 7    
Growing Degree Days 22 (Base 50)    
Moisture  
Dew Point 64 °F    
Average Humidity 85    
Maximum Humidity 100    
Minimum Humidity 51    
Precipitation  
Precipitation 0.79 in - - ()
Sea Level Pressure  
Sea Level Pressure 29.94 in    
Wind  
Wind Speed 9 mph (North)    
Max Wind Speed 24 mph    
Max Gust Speed 43 mph    
Visibility 5 miles    
Events Fog , Rain , Thunderstorm    
Averages and records for this station are not official NWS values.
T = Trace of Precipitation, MM = Missing Value Source: NWS Daily Summary

Daily Weather History Graph

Daily Weather History Graph

Search for Another Location

Airport or City:

Trip Planner

Search our weather history database for the weather conditions in past years. The results will help you decide how hot, cold, wet, or windy it might be!

Date:

Astronomy

May. 10, 2013 Rise Set
Actual Time 6:39 AM CDT 8:16 PM CDT
Civil Twilight 6:12 AM CDT 8:42 PM CDT
Nautical Twilight 5:41 AM CDT 9:14 PM CDT
Astronomical Twilight 5:08 AM CDT 9:47 PM CDT
Moon 7:04 AM CDT (5/10) 9:05 PM CDT (5/10)
Length of Visible Light 14h 30m
Length of Day
13h 37m
New Moon, 0% of the Moon is Illuminated
May 10
New Moon
May 17
First Quarter
May 24
Full
May 31
Last Quarter
Jun 8
New

Hourly Weather History & Observations

Time (CDT) Temp. Heat Index Dew Point Humidity Pressure Visibility Wind Dir Wind Speed Gust Speed Precip Events Conditions
12:50 AM 64.4 °F - 64.4 °F 100% 29.85 in 5.0 mi NW 6.9 mph - N/A   Scattered Clouds
12:55 AM 64.4 °F - 64.4 °F 100% 29.85 in 5.0 mi NNW 6.9 mph - N/A   Scattered Clouds
1:20 AM 64.4 °F - 64.4 °F 100% 29.86 in 3.0 mi NW 8.1 mph - N/A   Mostly Cloudy
1:25 AM 64.4 °F - 64.4 °F 100% 29.86 in 1.2 mi NW 8.1 mph - N/A   Unknown
1:27 AM 64.4 °F - 64.4 °F 100% 29.87 in 0.2 mi NW 5.8 mph - N/A Fog Fog
1:38 AM 64.4 °F - 64.4 °F 100% 29.88 in 0.2 mi NNW 5.8 mph - N/A Fog Fog
1:50 AM 64.4 °F - 64.4 °F 100% 29.87 in 0.1 mi NW 3.5 mph - N/A Fog Fog
1:55 AM 64.4 °F - 64.4 °F 100% 29.88 in 0.1 mi NW 3.5 mph - N/A Fog Fog
2:36 AM 66.2 °F - 66.2 °F 100% 29.98 in 0.5 mi ENE 3.5 mph - N/A Fog Fog
2:48 AM 66.2 °F - 66.2 °F 100% 29.90 in 1.8 mi East 5.8 mph - N/A   Overcast
2:55 AM 66.2 °F - 66.2 °F 100% 29.90 in 2.5 mi East 3.5 mph - N/A   Overcast
3:05 AM 66.2 °F - 66.2 °F 100% 29.90 in 3.0 mi ENE 3.5 mph - N/A   Overcast
3:55 AM 66.2 °F - 66.2 °F 100% 29.92 in 4.0 mi Calm Calm - N/A   Overcast
4:55 AM 66.2 °F - 64.4 °F 94% 29.89 in 5.0 mi NW 5.8 mph - N/A   Mostly Cloudy
5:49 AM 66.2 °F - 64.4 °F 94% 29.94 in 5.0 mi WSW 3.5 mph - N/A   Mostly Cloudy
5:55 AM 66.2 °F - 64.4 °F 94% 29.94 in 5.0 mi WSW 5.8 mph - N/A   Mostly Cloudy
6:31 AM 66.2 °F - 64.4 °F 94% 29.94 in 5.0 mi West 11.5 mph - N/A Rain Light Rain
6:55 AM 66.2 °F - 64.4 °F 94% 29.92 in 5.0 mi West 13.8 mph - N/A Rain Light Rain
7:06 AM 66.2 °F - 64.4 °F 94% 29.93 in 5.0 mi NW 11.5 mph - N/A Rain , Thunderstorm Light Thunderstorms and Rain
7:50 AM 66.2 °F - 64.4 °F 94% 29.94 in 4.0 mi West 21.9 mph 29.9 mph N/A Rain Light Rain
7:55 AM 66.2 °F - 64.4 °F 94% 29.98 in 4.0 mi WNW 21.9 mph 29.9 mph N/A Rain Light Rain
8:47 AM 66.2 °F - 64.4 °F 94% 29.96 in 7.0 mi North 18.4 mph - N/A   Mostly Cloudy
8:55 AM 66.2 °F - 64.4 °F 94% 29.95 in 7.0 mi North 10.4 mph 25.3 mph N/A   Mostly Cloudy
9:32 AM 69.8 °F - 66.2 °F 88% 29.97 in 6.0 mi NE 11.5 mph - N/A   Scattered Clouds
9:55 AM 69.8 °F - 66.2 °F 88% 29.97 in 7.0 mi NE 12.7 mph - N/A   Scattered Clouds
10:55 AM 77.0 °F - 62.6 °F 61% 29.95 in 7.0 mi ENE 5.8 mph - N/A   Scattered Clouds
10:58 AM 78.8 °F - 66.2 °F 65% 29.96 in 7.0 mi North 13.8 mph - N/A   Mostly Cloudy
11:58 AM 78.8 °F - 66.2 °F 65% 29.96 in 7.0 mi North 13.8 mph - N/A   Mostly Cloudy
12:55 PM 78.8 °F - 64.4 °F 61% 29.94 in 7.0 mi NNE 11.5 mph 20.7 mph N/A   Mostly Cloudy
1:55 PM 80.6 °F 82.3 °F 64.4 °F 58% 29.95 in 7.0 mi North 10.4 mph - N/A   Mostly Cloudy
2:55 PM 82.4 °F 83.4 °F 62.6 °F 51% 29.91 in 7.0 mi NE 12.7 mph - N/A   Mostly Cloudy
3:55 PM 80.6 °F 81.8 °F 62.6 °F 54% 29.90 in 7.0 mi NNE 12.7 mph - N/A   Mostly Cloudy
4:55 PM 78.8 °F - 62.6 °F 57% 29.89 in 7.0 mi NE 12.7 mph - N/A   Mostly Cloudy
5:40 PM 78.8 °F - 60.8 °F 54% 29.87 in 7.0 mi ENE 12.7 mph - N/A Rain Light Rain
5:49 PM 78.8 °F - 60.8 °F 54% 29.87 in 7.0 mi East 10.4 mph - N/A Rain , Thunderstorm Light Thunderstorms and Rain
5:55 PM 77.0 °F - 64.4 °F 65% 29.86 in 7.0 mi ENE 13.8 mph - N/A Rain , Thunderstorm Light Thunderstorms and Rain
6:18 PM 75.2 °F - 64.4 °F 69% 29.90 in 7.0 mi ENE 11.5 mph - N/A Rain Light Rain
6:31 PM 75.2 °F - 64.4 °F 69% 29.91 in 7.0 mi ENE 11.5 mph - N/A Rain , Thunderstorm Light Thunderstorms and Rain
6:55 PM 73.4 °F - 66.2 °F 78% 29.90 in 6.0 mi NE 10.4 mph - N/A Rain , Thunderstorm Light Thunderstorms and Rain
7:05 PM 68.0 °F - 64.4 °F 88% 29.95 in 2.5 mi North 23.0 mph 33.4 mph N/A Rain , Thunderstorm Thunderstorms and Rain
7:09 PM 66.2 °F - 62.6 °F 88% 29.97 in 1.0 mi North 24.2 mph 32.2 mph N/A Rain , Thunderstorm Heavy Thunderstorms and Rain
7:19 PM 64.4 °F - 59.0 °F 83% 30.01 in 1.5 mi North 16.1 mph 42.6 mph N/A Rain , Thunderstorm Heavy Thunderstorms and Rain
7:28 PM 64.4 °F - 62.6 °F 94% 30.02 in 2.0 mi ENE 12.7 mph - N/A Rain , Thunderstorm Light Thunderstorms and Rain
7:34 PM 64.4 °F - 60.8 °F 88% 30.03 in 3.0 mi ENE 5.8 mph 18.4 mph N/A Rain , Thunderstorm Light Thunderstorms and Rain
7:55 PM 62.6 °F - 59.0 °F 88% 30.02 in 3.0 mi North 3.5 mph - N/A Rain , Thunderstorm Light Thunderstorms and Rain
8:30 PM 64.4 °F - 62.6 °F 94% 30.04 in 5.0 mi NW 18.4 mph 25.3 mph N/A Rain Light Rain
8:55 PM 64.4 °F - 62.6 °F 94% 30.03 in 5.0 mi NE 12.7 mph - N/A Rain Light Rain
9:20 PM 66.2 °F - 60.8 °F 83% 30.01 in 6.0 mi ENE 9.2 mph - N/A   Mostly Cloudy
9:55 PM 66.2 °F - 60.8 °F 83% 30.07 in 6.0 mi NE 4.6 mph - N/A   Mostly Cloudy
10:55 PM 64.4 °F - 60.8 °F 88% 30.06 in 6.0 mi NNW 6.9 mph - N/A   Partly Cloudy
11:55 PM 62.6 °F - 60.8 °F 94% 30.04 in 6.0 mi North 12.7 mph - N/A   Scattered Clouds